CAPE
699 1097 1484 1084 428 3 0 0 123 333 312 459 675 761 579 257 48 180 293 216 453 649 740 576 300 146 3 0 0 0 0 0 0 44 208 265 198 51 0 0 0 0 0
804 1067 1151 918 381 4 0 0 1 211 483 612 736 687 360 103 12 85 206 196 434 624 563 432 169 10 0 0 0 0 4 8 3 124 194 176 189 163 27 0 0 0 0
943 1087 1102 779 242 23 0 0 0 20 316 630 730 549 258 62 4 68 168 310 505 504 459 353 184 39 0 0 0 1 6 4 0 0 0 0 0 31 136 0 0 0 0
1015 1063 1018 724 274 60 0 0 0 0 129 297 349 304 227 72 10 99 249 416 447 478 457 260 84 4 0 0 0 0 0 0 11 0 0 0 0 0 0 0 0 0 0
1084 948 990 688 306 79 7 0 0 0 11 187 292 309 205 35 14 119 259 376 486 495 499 413 100 0 0 0 0 3 56 207 181 126 42 75 34 0 0 0 0 0 0
1028 1008 1234 834 383 119 21 1 0 0 11 139 268 248 110 6 7 69 234 447 606 620 499 366 2 0 0 0 0 0 0 0 0 0 0 0 82 46 134 97 148 195 205
1009 1012 1207 896 483 196 92 8 0 0 17 110 198 200 120 10 32 127 326 491 604 568 477 31 0 0 0 0 0 0 0 0 0 0 6 4 106 154 19 0 0 6 22
1127 1416 1316 1063 583 294 170 31 0 0 0 49 186 247 141 17 102 346 498 506 573 529 54 0 0 0 0 0 0 0 0 0 0 0 0 68 14 0 18 19 33 75 200
1345 1398 1249 1223 770 436 316 92 5 22 6 142 330 307 134 99 204 358 487 500 466 66 0 0 0 0 0 0 0 0 0 0 0 0 0 0 84 20 29 14 22 60 98
1284 1334 1268 1204 1059 574 495 236 58 85 187 257 355 228 180 317 537 587 457 349 97 0 0 0 0 0 0 0 0 0 0 0 0 2 30 179 51 35 14 4 0 0 0
1179 1166 1057 1034 1011 691 514 393 284 75 207 285 330 314 425 568 582 526 277 94 0 0 0 0 0 0 0 0 0 0 0 0 0 0 57 179 131 78 7 0 0 0 0
1013 1089 1047 1038 1006 678 560 610 403 259 392 510 504 421 584 567 429 342 135 101 3 0 0 0 0 0 0 0 0 0 0 0 0 0 22 117 192 26 0 0 0 0 0
880 941 994 891 1018 739 584 619 484 407 291 348 417 434 410 556 568 401 181 243 15 0 0 0 0 0 0 0 0 0 0 0 0 0 94 142 169 4 0 0 0 0 0
828 693 802 882 900 844 664 577 507 279 144 142 287 513 415 277 387 227 81 55 0 0 0 0 0 0 0 0 0 0 0 0 0 22 97 115 26 0 0 0 0 0 0
120 330 855 937 786 811 772 681 490 243 100 30 55 170 256 128 281 114 35 16 0 0 0 0 0 0 0 0 0 0 0 0 8 4 19 43 0 0 0 0 0 0 0
0 6 892 1151 935 809 824 767 634 317 205 108 34 52 104 50 65 41 23 3 0 0 0 0 0 0 0 0 0 131 63 8 5 0 0 6 0 0 0 0 0 0 0
0 0 267 1083 1110 874 816 732 656 430 293 154 135 157 55 18 0 8 5 0 0 0 0 0 0 0 0 0 244 276 189 28 0 0 0 0 0 0 0 0 0 0 0
0 0 17 857 1174 992 894 753 671 558 382 194 102 104 82 19 2 0 0 0 0 0 0 0 0 0 0 50 366 222 139 128 2 0 0 0 5 0 0 0 0 0 0
0 0 0 466 857 1096 966 817 710 540 361 156 58 31 13 11 0 0 0 0 0 33 0 0 0 0 0 144 208 25 0 0 0 0 0 0 0 0 0 0 0 0 0
0 0 0 7 281 852 902 804 660 391 356 129 57 25 1 0 0 0 0 2 50 83 4 0 11 32 79 70 0 0 0 0 0 0 0 0 0 0 0 0 0 0 0
0 0 0 0 71 575 579 637 575 550 303 133 69 60 11 0 0 0 0 7 157 213 124 83 57 66 112 0 0 0 0 0 0 0 0 0 0 0 0 0 0 0 0
0 0 0 1 163 419 484 553 502 557 294 124 12 31 18 0 0 1 52 36 140 243 335 286 167 140 12 0 0 0 0 0 0 0 0 0 0 0 0 0 0 0 0
0 0 0 17 116 444 592 432 248 180 106 22 8 0 7 0 0 0 66 116 146 215 256 461 300 222 121 0 0 0 0 0 0 0 0 0 0 0 0 0 0 0 0
0 0 0 0 288 529 569 506 406 335 306 57 24 57 34 6 0 0 7 192 284 335 295 556 320 179 37 30 0 0 0 0 0 0 0 0 0 0 0 0 0 0 0
0 0 0 9 321 800 739 617 537 450 287 97 18 87 89 33 0 0 0 139 392 481 289 267 292 122 16 2 0 0 0 0 0 0 0 0 0 0 0 0 0 0 0
0 0 0 259 893 1073 987 933 720 624 484 314 239 220 171 149 41 0 0 110 382 390 208 270 167 20 2 0 0 0 0 0 0 0 0 0 0 0 0 0 0 0 0
CIN
-629 -525 -424 -435 -557 -152 0 0 -573 -454 -435 -363 -302 -284 -317 -415 -560 -432 -331 -348 -227 -152 -110 -135 -224 -317 -375 0 0 0 0 0 0 -272 -106 -74 -81 -176 0 0 0 0 0
-670 -596 -531 -534 -621 -153 0 0 -42 -540 -390 -350 -327 -326 -420 -560 -642 -525 -390 -370 -247 -173 -171 -187 -311 -500 0 0 0 0 -424 -432 -410 -186 -97 -97 -69 -78 -171 0 0 0 0
-662 -652 -582 -586 -703 -784 0 0 0 -614 -518 -378 -343 -380 -469 -597 -685 -510 -426 -325 -238 -215 -207 -221 -311 -456 -93 0 0 -78 -378 -357 0 0 0 0 0 -125 -99 0 0 0 0
-683 -679 -633 -623 -724 -796 0 0 0 0 -627 -512 -475 -481 -490 -577 -648 -484 -390 -292 -258 -226 -205 -280 -409 -299 -192 0 0 0 0 0 -125 0 0 0 0 0 0 0 0 0 0
-665 -703 -654 -651 -732 -834 -933 0 0 0 -767 -574 -492 -474 -497 -599 -653 -468 -386 -323 -253 -229 -199 -210 -419 0 0 0 0 -299 -260 -119 -98 -126 -200 -125 -90 0 0 0 0 0 0
-656 -678 -590 -619 -698 -784 -863 -617 0 0 -816 -626 -506 -504 -571 -650 -677 -516 -395 -298 -227 -209 -217 -250 -73 0 0 0 0 -10 -5 0 0 0 0 0 -145 -166 -102 -115 -105 -98 -81
-676 -671 -577 -604 -689 -760 -792 -900 0 0 -818 -641 -565 -535 -565 -637 -607 -495 -365 -286 -237 -222 -237 -453 0 0 0 0 0 0 0 0 0 0 -100 -46 -152 -113 -49 0 0 -17 -48
-559 -495 -502 -542 -634 -701 -739 -814 0 0 0 -685 -564 -511 -541 -630 -544 -384 -315 -288 -251 -247 -405 0 0 0 0 0 0 0 0 0 0 0 0 -168 -91 0 -81 -92 -53 -44 -57
-419 -405 -441 -428 -540 -616 -642 -732 -635 -743 -575 -596 -474 -473 -545 -546 -465 -381 -314 -303 -292 -466 0 0 0 0 0 0 0 0 0 0 0 0 0 0 -95 -207 -119 -58 -54 -56 -61
-347 -314 -300 -325 -379 -560 -592 -653 -741 -694 -593 -512 -442 -495 -508 -437 -340 -307 -335 -355 -464 0 0 0 0 0 0 0 0 0 0 0 0 -44 -255 -104 -158 -149 -64 -76 0 0 0
-285 -285 -295 -295 -276 -399 -547 -606 -629 -713 -606 -519 -455 -447 -391 -339 -330 -336 -402 -472 0 0 0 0 0 0 0 0 0 0 0 0 0 0 -188 -114 -115 -123 -80 0 0 0 0
-302 -279 -279 -278 -283 -332 -406 -443 -562 -640 -581 -491 -434 -440 -355 -342 -375 -394 -471 -476 -378 0 0 0 0 0 0 0 0 0 0 0 0 0 -155 -152 -82 -70 0 0 0 0 0
-269 -292 -274 -290 -261 -378 -382 -376 -480 -530 -598 -568 -493 -444 -428 -348 -336 -374 -448 -402 -551 0 0 0 0 0 0 0 0 0 0 0 0 0 -171 -109 -95 -39 0 0 0 0 0
-153 -199 -290 -283 -246 -214 -364 -424 -425 -552 -656 -640 -529 -415 -436 -473 -408 -460 -522 -525 0 0 0 0 0 0 0 0 0 0 0 0 0 -112 -147 -102 -61 0 0 0 0 0 0
-127 -236 -183 -256 -273 -248 -267 -271 -378 -496 -605 -737 -692 -560 -501 -569 -479 -556 -613 -624 0 0 0 0 0 0 0 0 0 0 0 -8 -93 -82 -111 -118 0 0 0 0 0 0 0
0 -69 -154 -185 -255 -251 -221 -264 -315 -416 -499 -573 -678 -699 -669 -728 -665 -676 -715 -730 0 0 0 0 0 0 0 0 0 -169 -154 -112 -78 0 0 -27 0 0 0 0 0 0 0
0 0 -210 -185 -214 -233 -184 -213 -247 -325 -358 -425 -487 -542 -642 -717 0 -750 -781 0 0 0 0 0 0 0 0 0 -110 -84 -103 -172 0 0 0 0 -7 0 0 0 0 0 0
0 0 -274 -179 -159 -180 -197 -221 -223 -245 -314 -364 -424 -454 -556 -692 -728 0 0 0 0 0 0 0 0 0 0 -227 -72 -79 -99 -91 -23 0 0 0 -137 0 0 0 0 0 0
0 0 0 -193 -177 -164 -176 -195 -205 -264 -312 -362 -417 -516 -601 -641 0 0 0 0 0 -596 0 0 0 0 0 -127 -90 -172 0 0 0 0 0 0 0 0 0 0 0 0 0
0 0 0 -86 -240 -207 -156 -157 -209 -286 -303 -417 -469 -528 -352 -175 0 0 0 -225 -564 -537 -398 0 -420 -353 -216 -160 0 0 0 0 0 0 0 0 0 0 0 0 0 0 0
0 0 0 0 -360 -239 -221 -215 -235 -281 -367 -442 -521 -544 -605 0 -470 0 0 -311 -427 -394 -403 -374 -348 -300 -243 0 0 0 0 0 0 0 0 0 0 0 0 0 0 0 0
0 0 0 -19 -302 -268 -268 -271 -258 -315 -386 -458 -446 -521 -571 0 0 -642 -497 -523 -417 -320 -259 -244 -263 -269 -212 0 0 0 0 0 0 0 0 0 0 0 0 0 0 0 0
0 0 0 -168 -191 -220 -237 -245 -273 -334 -350 -411 -477 0 -609 0 0 0 -403 -366 -364 -315 -262 -158 -187 -181 -213 0 0 0 0 0 0 0 0 0 0 0 0 0 0 0 0
0 0 0 0 -145 -194 -182 -193 -209 -253 -295 -436 -517 -586 -601 -576 0 0 -159 -257 -231 -230 -227 -126 -154 -162 -283 -159 0 0 0 0 0 0 0 0 0 0 0 0 0 0 0
0 0 0 -57 -135 -140 -143 -129 -144 -177 -245 -328 -391 -403 -445 -482 -9 0 0 -228 -147 -120 -187 -178 -144 -193 -329 -97 0 0 0 0 0 0 0 0 0 0 0 0 0 0 0
0 0 0 -148 -111 -131 -151 -115 -72 -99 -146 -160 -204 -241 -295 -341 -441 0 0 -194 -155 -124 -177 -165 -208 -327 -144 0 0 0 0 0 0 0 0 0 0 0 0 0 0 0 0
Wind_Speed
18 23 23 22 21 20 21 20 20 21 23 24 24 24 24 25 24 25 25 25 25 24 23 24 23 23 22 23 23 23 23 23 23 23 23 22 21 20 20 19 19 19 18
21 23 23 21 20 20 21 20 20 20 21 23 23 23 23 23 24 25 25 24 24 23 23 23 23 23 22 23 23 23 23 23 22 22 21 20 20 19 18 18 18 17 17
21 22 22 21 19 20 21 21 21 21 21 21 22 22 23 24 24 24 24 24 23 23 23 22 22 22 22 22 23 23 23 22 21 21 19 18 18 18 17 17 16 16 16
20 21 21 20 18 19 20 20 21 22 21 21 21 22 23 23 23 23 23 22 22 22 22 22 21 22 22 22 22 22 21 21 20 19 18 17 17 16 16 16 16 15 15
15 17 19 20 19 19 19 19 20 21 22 21 20 20 21 21 22 22 22 21 20 20 21 20 21 21 21 21 21 20 19 19 18 17 15 14 14 15 16 16 16 15 14
11 13 18 18 18 19 21 19 19 20 21 21 20 19 20 20 21 21 20 19 19 18 18 19 19 20 20 20 20 19 18 18 17 16 14 13 13 14 16 17 17 16 14
9 9 14 14 14 15 18 20 20 20 20 19 19 18 18 19 18 18 18 17 16 16 17 17 18 18 19 19 18 17 17 16 16 17 19 18 16 15 16 18 19 18 18
3 3 5 11 11 12 12 14 17 18 18 18 18 16 16 16 15 15 15 15 14 14 15 15 16 17 17 17 16 16 15 16 16 16 17 17 17 17 18 20 21 21 22
10 8 6 5 7 8 8 10 12 14 15 15 15 15 13 13 12 13 13 13 13 13 14 14 15 15 16 16 15 15 15 15 16 17 17 16 17 18 19 22 24 25 25
11 13 13 15 10 6 6 7 10 11 12 12 12 12 11 12 11 11 11 11 11 12 12 13 13 14 14 15 14 14 14 15 15 16 16 16 17 18 20 22 24 24 24
12 15 16 15 19 14 8 7 8 11 12 12 11 9 8 7 9 11 10 10 11 11 11 11 12 12 13 14 14 14 14 14 14 14 14 15 17 18 20 22 22 23 23
15 16 17 18 17 18 16 11 8 7 8 9 9 9 8 8 8 8 8 9 9 9 10 10 11 12 12 13 14 14 14 14 13 13 14 15 16 18 20 20 21 21 21
16 17 20 18 20 18 19 19 16 11 9 8 8 8 7 6 4 4 4 6 6 7 8 9 10 10 11 12 13 13 13 13 14 14 14 15 16 18 18 19 20 20 20
18 19 21 21 20 20 20 18 18 20 16 13 10 8 7 5 4 3 3 3 3 5 6 8 8 9 10 11 11 12 12 13 14 14 14 15 16 16 17 18 18 19 20
25 22 21 23 25 22 21 22 22 20 21 19 13 12 10 9 7 5 5 3 2 3 4 6 7 7 9 10 11 12 11 11 13 13 14 15 15 15 16 17 17 18 18
30 27 24 23 25 25 25 24 26 24 20 20 18 15 13 12 10 8 6 4 1 1 3 5 6 7 7 9 12 12 12 11 12 13 14 14 13 13 13 14 15 16 17
36 30 25 23 24 27 28 26 28 27 25 24 23 21 19 16 13 11 9 6 3 1 3 4 6 8 8 10 11 12 11 11 12 12 13 12 13 13 14 15 15 15 18
38 32 29 25 24 26 29 28 27 28 28 28 28 28 24 20 17 16 13 10 6 4 3 3 4 7 8 9 10 11 11 10 11 12 13 13 15 15 16 17 17 17 19
39 38 33 30 27 26 29 31 29 28 29 30 29 27 26 23 21 20 18 15 10 6 5 4 6 6 8 9 9 12 12 12 13 14 14 15 16 17 17 18 20 20 20
36 38 36 33 32 30 28 30 33 33 31 29 30 29 28 26 23 22 20 18 13 8 7 6 6 7 8 7 11 12 15 16 15 16 17 18 18 19 20 21 23 24 25
35 36 36 35 33 30 30 30 33 36 33 32 30 28 27 27 25 23 22 19 15 12 9 8 8 8 6 6 9 13 17 18 18 18 18 18 19 20 22 23 24 25 26
40 37 37 33 31 31 31 30 31 35 37 34 32 29 28 26 28 26 23 20 17 16 14 11 8 5 8 5 10 12 13 15 19 21 20 20 19 20 22 24 25 27 28
42 40 37 34 32 30 32 31 30 27 33 38 36 32 31 28 28 30 28 24 20 18 16 12 7 5 6 8 9 12 14 15 15 18 22 20 19 20 22 24 27 29 29
43 39 38 36 34 31 30 32 33 32 36 41 39 35 32 29 26 26 28 28 25 21 18 12 9 8 8 9 12 14 14 14 16 17 18 21 19 20 23 25 28 29 29
32 35 37 35 33 32 31 32 33 34 33 33 36 33 31 30 29 26 26 26 28 26 21 15 12 11 11 10 11 11 14 15 14 16 17 17 18 20 24 25 27 28 30
28 29 32 34 35 31 31 35 34 33 34 33 35 33 30 26 25 24 23 25 27 27 24 17 15 13 10 10 10 11 13 16 15 17 18 16 16 18 22 25 27 30 31
Wind_Direction
117 123 123 120 117 111 108 104 98 99 105 109 109 106 105 106 105 105 105 104 101 98 92 89 86 82 80 83 86 87 88 90 87 87 84 77 74 73 69 66 60 57 56
118 126 125 122 118 113 112 108 104 103 105 109 109 108 106 106 105 107 107 104 101 97 95 92 89 86 84 86 90 92 93 88 83 86 83 77 68 69 69 62 58 55 55
123 126 126 124 119 117 117 112 111 111 109 109 109 108 109 109 109 110 108 105 101 98 95 92 89 88 86 90 92 91 90 85 85 81 78 74 65 58 61 55 54 54 52
126 127 126 126 120 120 118 115 115 116 114 114 113 112 113 112 112 112 109 105 100 96 96 92 89 88 91 94 91 90 90 85 83 79 75 69 61 55 51 50 51 46 44
122 125 128 129 125 123 120 118 116 118 119 117 115 114 114 113 113 113 110 105 100 95 94 89 88 88 92 94 91 89 88 84 83 78 77 72 66 56 47 43 41 37 39
131 127 131 128 125 124 124 121 118 118 119 120 118 117 116 116 115 114 111 106 102 97 92 88 87 88 91 92 91 89 85 80 76 68 67 76 75 60 44 35 32 31 33
132 136 137 134 131 127 127 126 124 122 122 123 122 120 119 118 115 112 111 106 100 93 89 86 88 86 87 89 86 86 82 76 71 58 51 53 58 59 40 29 25 23 19
261 226 155 144 142 136 130 127 126 126 126 126 126 124 121 118 113 109 108 104 96 90 86 85 85 84 84 82 83 81 82 70 62 56 53 54 53 48 35 23 19 14 8
268 257 238 220 157 149 143 134 130 128 128 127 128 127 123 118 112 109 107 103 95 89 86 87 84 83 77 75 77 72 76 65 57 54 55 54 52 42 30 18 10 6 5
265 262 261 255 248 188 165 154 142 137 133 133 133 130 126 121 115 110 107 100 93 91 88 86 86 80 72 72 67 67 67 62 61 57 52 52 49 38 27 17 10 8 9
269 261 261 258 254 253 226 182 162 150 144 142 143 140 133 123 119 116 110 103 99 95 88 82 80 71 68 64 62 65 63 65 63 57 55 53 43 35 26 19 16 11 11
265 262 260 258 254 251 251 242 218 192 167 159 157 153 146 138 129 119 112 106 99 92 86 76 75 69 57 54 56 59 63 64 59 56 60 52 39 31 27 25 21 17 16
264 263 259 256 254 246 249 248 247 238 228 202 184 176 167 159 149 129 105 100 90 84 62 65 63 58 57 51 52 57 60 60 55 58 56 45 34 29 29 26 24 23 18
267 260 252 252 251 253 248 241 246 246 244 242 235 213 214 216 210 196 144 114 80 58 62 74 68 60 50 44 48 48 52 52 52 57 51 40 33 30 28 28 26 22 18
272 268 254 249 249 247 250 249 246 245 247 245 235 236 238 242 233 227 173 153 92 38 63 73 68 51 41 40 42 37 48 50 51 48 43 37 33 30 25 24 23 18 19
277 269 264 252 246 244 249 248 249 250 247 247 245 238 228 240 237 222 205 197 189 65 46 53 48 28 32 29 25 32 40 48 46 40 35 34 35 32 32 29 27 23 16
274 269 263 257 245 243 245 248 251 249 251 251 253 251 249 245 238 233 240 238 234 278 344 15 15 2 4 8 14 23 36 38 41 35 30 32 29 24 21 19 19 17 8
271 267 263 258 252 245 244 244 246 249 250 252 254 256 255 253 250 251 251 255 260 265 292 324 356 351 354 3 17 20 26 34 32 25 25 24 16 16 14 10 7 3 359
271 267 263 257 254 249 249 246 244 244 248 251 254 256 254 253 254 255 258 261 260 254 265 292 322 337 344 0 14 9 14 23 18 18 19 15 15 13 9 6 2 358 356
277 269 264 258 254 251 252 249 247 246 247 249 252 254 253 253 253 253 257 261 259 256 261 280 303 328 338 10 5 4 3 2 6 10 10 8 8 6 6 4 4 2 1
276 272 268 262 257 249 247 247 248 245 245 247 249 250 252 252 252 251 255 255 256 255 260 270 294 309 334 358 359 360 355 359 3 7 8 7 5 3 6 7 6 3 360
269 271 268 265 257 249 247 248 253 247 247 246 246 250 251 251 251 250 250 249 250 258 268 272 269 291 319 340 336 342 342 354 2 4 3 3 2 3 4 3 1 357 355
268 266 264 264 260 252 248 248 254 250 249 245 244 247 249 249 251 249 249 249 250 255 262 265 240 255 301 324 329 334 338 337 351 359 354 358 358 360 359 358 356 354 354
267 266 262 263 261 256 249 245 245 245 245 245 245 248 250 248 248 247 248 249 252 255 258 252 240 266 290 307 324 328 338 349 341 343 350 349 355 355 356 356 356 355 355
272 267 264 262 260 257 251 247 244 247 248 248 245 246 247 249 248 244 242 246 249 254 256 248 246 263 285 303 317 326 328 341 346 344 341 344 350 352 353 356 356 356 355
280 274 269 264 260 259 253 248 246 246 245 247 245 245 243 242 242 243 242 243 249 251 251 249 251 264 279 301 316 323 327 333 336 339 340 345 342 347 351 354 355 353 352